When you browse on this site, cookies collect data to enhance your experience and personalize the content and advertising you see.
Visit our Privacy Policy to learn more. By continuing to use the site, you agree to this use of cookies and data.
  • în România
  • Lista ţărilor
  • Pe 7 zile
  • Temperatura apei
  • Hartă satelitară
  • Meteo pe hartă
  • Widget-uri
  • user-avatar
    Intrare

    Meteo pe oră la Arneguy

    Astăzi, 18 Februarie, Luni

    Timp Temperatura Precipitaţii Vânt Presiune Umiditate
    00:00 +6°C° 0 mm 4 m/s 703 mmHg 35%
    01:00 +5°C° 0 mm 3 m/s 703 mmHg 37%
    02:00 +5°C° 0 mm 3 m/s 703 mmHg 40%
    03:00 +4°C° 0 mm 3 m/s 703 mmHg 42%
    04:00 +4°C° 0 mm 3 m/s 703 mmHg 44%
    05:00 +4°C° 0 mm 3 m/s 703 mmHg 46%
    06:00 +4°C° 0 mm 2 m/s 703 mmHg 51%
    07:00 +5°C° 0 mm 2 m/s 703 mmHg 49%
    08:00 +5°C° 0 mm 3 m/s 703 mmHg 47%
    09:00 +8°C° 0 mm 3 m/s 704 mmHg 44%
    10:00 +10°C° 0 mm 3 m/s 704 mmHg 41%
    11:00 +12°C° 0 mm 2 m/s 704 mmHg 38%
    12:00 +15°C° 0 mm 2 m/s 704 mmHg 36%
    13:00 +15°C° 0 mm 2 m/s 704 mmHg 37%
    14:00 +15°C° 0 mm 2 m/s 704 mmHg 38%
    15:00 +15°C° 0 mm 2 m/s 703 mmHg 38%
    16:00 +13°C° 0 mm 2 m/s 703 mmHg 48%
    17:00 +10°C° 0 mm 1 m/s 703 mmHg 57%
    18:00 +8°C° 0 mm 1 m/s 703 mmHg 66%
    19:00 +7°C° 0 mm 1 m/s 703 mmHg 66%
    20:00 +7°C° 0 mm 1 m/s 703 mmHg 66%
    21:00 +6°C° 0 mm 1 m/s 704 mmHg 65%
    22:00 +5°C° 0 mm 1 m/s 704 mmHg 67%
    23:00 +5°C° 0 mm 1 m/s 704 mmHg 69%

    Mâine, 19 Februarie, Marţi

    Timp Temperatura Precipitaţii Vânt Presiune Umiditate
    00:00 +4°C° 0 mm 0 m/s 704 mmHg 71%
    01:00 +3°C° 0 mm 0 m/s 704 mmHg 74%
    02:00 +3°C° 0 mm 0 m/s 704 mmHg 76%
    03:00 +3°C° 0 mm 0 m/s 704 mmHg 79%
    04:00 +3°C° 0 mm 0 m/s 704 mmHg 81%
    05:00 +3°C° 0 mm 0 m/s 704 mmHg 82%
    06:00 +4°C° 0 mm 1 m/s 704 mmHg 84%
    07:00 +4°C° 0 mm 0 m/s 705 mmHg 78%
    08:00 +6°C° 0 mm 0 m/s 705 mmHg 73%
    09:00 +7°C° 0 mm 0 m/s 705 mmHg 67%
    10:00 +9°C° 0 mm 0 m/s 706 mmHg 62%
    11:00 +11°C° 0 mm 0 m/s 706 mmHg 57%
    12:00 +13°C° 0 mm 0 m/s 706 mmHg 51%
    13:00 +13°C° 0 mm 1 m/s 706 mmHg 53%
    14:00 +13°C° 0 mm 1 m/s 705 mmHg 54%
    15:00 +13°C° 0 mm 1 m/s 705 mmHg 55%
    16:00 +11°C° 0 mm 1 m/s 705 mmHg 67%
    17:00 +9°C° 0 mm 1 m/s 704 mmHg 78%
    18:00 +6°C° 0 mm 0 m/s 704 mmHg 90%
    19:00 +7°C° 0 mm 1 m/s 704 mmHg 89%
    20:00 +6°C° 0 mm 1 m/s 705 mmHg 88%
    21:00 +6°C° 0 mm 1 m/s 705 mmHg 87%
    22:00 +6°C° 0 mm 1 m/s 705 mmHg 82%
    23:00 +6°C° 0 mm 1 m/s 705 mmHg 77%

    Poimâine, 20 Februarie, Miercuri

    Timp Temperatura Precipitaţii Vânt Presiune Umiditate
    00:00 +4°C° 0 mm 2 m/s 705 mmHg 72%
    01:00 +4°C° 0 mm 2 m/s 705 mmHg 70%
    02:00 +4°C° 0 mm 2 m/s 705 mmHg 68%
    03:00 +4°C° 0 mm 2 m/s 704 mmHg 66%
    04:00 +4°C° 0 mm 2 m/s 705 mmHg 68%
    05:00 +4°C° 0 mm 2 m/s 705 mmHg 69%
    06:00 +4°C° 0 mm 2 m/s 705 mmHg 70%
    07:00 +5°C° 0 mm 2 m/s 705 mmHg 68%
    08:00 +7°C° 0 mm 2 m/s 706 mmHg 67%
    09:00 +8°C° 0 mm 2 m/s 706 mmHg 65%
    10:00 +10°C° 0 mm 2 m/s 707 mmHg 59%
    11:00 +13°C° 0 mm 2 m/s 707 mmHg 54%
    12:00 +15°C° 0 mm 1 m/s 707 mmHg 48%
    13:00 +15°C° 0 mm 1 m/s 707 mmHg 48%
    14:00 +15°C° 0 mm 1 m/s 707 mmHg 48%
    15:00 +15°C° 0 mm 1 m/s 706 mmHg 48%
    16:00 +13°C° 0 mm 1 m/s 706 mmHg 56%
    17:00 +11°C° 0 mm 1 m/s 706 mmHg 64%
    18:00 +9°C° 0 mm 1 m/s 706 mmHg 73%
    19:00 +9°C° 0 mm 1 m/s 706 mmHg 74%
    20:00 +7°C° 0 mm 2 m/s 707 mmHg 75%
    21:00 +6°C° 0 mm 2 m/s 707 mmHg 76%
    22:00 +6°C° 0 mm 2 m/s 707 mmHg 75%
    23:00 +6°C° 0 mm 2 m/s 707 mmHg 74%

    21 Februarie, Joi

    Timp Temperatura Precipitaţii Vânt Presiune Umiditate
    00:00 +6°C° 0 mm 2 m/s 707 mmHg 74%
    01:00 +6°C° 0 mm 2 m/s 707 mmHg 73%
    02:00 +5°C° 0 mm 2 m/s 707 mmHg 72%
    03:00 +5°C° 0 mm 2 m/s 708 mmHg 71%
    04:00 +5°C° 0 mm 2 m/s 708 mmHg 71%
    05:00 +5°C° 0 mm 2 m/s 708 mmHg 71%
    06:00 +5°C° 0 mm 2 m/s 708 mmHg 71%
    07:00 +6°C° 0 mm 2 m/s 708 mmHg 67%
    08:00 +8°C° 0 mm 2 m/s 709 mmHg 63%
    09:00 +9°C° 0 mm 2 m/s 710 mmHg 59%
    10:00 +12°C° 0 mm 2 m/s 710 mmHg 55%
    11:00 +14°C° 0 mm 2 m/s 710 mmHg 50%
    12:00 +16°C° 0 mm 2 m/s 711 mmHg 45%
    13:00 +16°C° 0 mm 2 m/s 710 mmHg 44%
    14:00 +16°C° 0 mm 2 m/s 710 mmHg 43%
    15:00 +16°C° 0 mm 1 m/s 710 mmHg 43%
    16:00 +14°C° 0 mm 1 m/s 710 mmHg 51%
    17:00 +12°C° 0 mm 1 m/s 710 mmHg 60%
    18:00 +10°C° 0 mm 1 m/s 710 mmHg 68%
    19:00 +9°C° 0 mm 1 m/s 710 mmHg 68%
    20:00 +8°C° 0 mm 2 m/s 711 mmHg 69%
    21:00 +7°C° 0 mm 2 m/s 711 mmHg 69%
    22:00 +7°C° 0 mm 2 m/s 711 mmHg 68%
    23:00 +7°C° 0 mm 2 m/s 711 mmHg 66%

    22 Februarie, Vineri

    Timp Temperatura Precipitaţii Vânt Presiune Umiditate
    00:00 +6°C° 0 mm 2 m/s 711 mmHg 65%
    01:00 +6°C° 0 mm 2 m/s 711 mmHg 64%
    02:00 +6°C° 0 mm 2 m/s 711 mmHg 64%
    03:00 +6°C° 0 mm 2 m/s 711 mmHg 63%
    04:00 +6°C° 0 mm 2 m/s 711 mmHg 64%
    05:00 +6°C° 0 mm 2 m/s 711 mmHg 64%
    06:00 +6°C° 0 mm 2 m/s 711 mmHg 64%
    07:00 +7°C° 0 mm 2 m/s 712 mmHg 62%
    08:00 +9°C° 0 mm 2 m/s 712 mmHg 59%
    09:00 +10°C° 0 mm 2 m/s 713 mmHg 57%
    10:00 +14°C° 0 mm 1 m/s 713 mmHg 51%
    11:00 +16°C° 0 mm 1 m/s 713 mmHg 45%
    12:00 +19°C° 0 mm 1 m/s 714 mmHg 39%
    13:00 +19°C° 0 mm 1 m/s 713 mmHg 39%
    14:00 +19°C° 0 mm 1 m/s 713 mmHg 40%
    15:00 +19°C° 0 mm 1 m/s 712 mmHg 41%
    16:00 +16°C° 0 mm 1 m/s 712 mmHg 50%
    17:00 +13°C° 0 mm 1 m/s 711 mmHg 60%
    18:00 +11°C° 0 mm 1 m/s 711 mmHg 69%
    19:00 +10°C° 0 mm 1 m/s 711 mmHg 68%
    20:00 +10°C° 0 mm 1 m/s 711 mmHg 67%
    21:00 +9°C° 0 mm 2 m/s 711 mmHg 66%
    22:00 +8°C° 0 mm 2 m/s 711 mmHg 64%
    23:00 +8°C° 0 mm 2 m/s 711 mmHg 63%

    23 Februarie, Sâmbătă

    Timp Temperatura Precipitaţii Vânt Presiune Umiditate
    00:00 +8°C° 0 mm 2 m/s 711 mmHg 61%
    01:00 +8°C° 0 mm 2 m/s 711 mmHg 60%
    02:00 +8°C° 0 mm 2 m/s 711 mmHg 59%
    03:00 +7°C° 0 mm 2 m/s 711 mmHg 59%
    04:00 +7°C° 0 mm 2 m/s 711 mmHg 58%
    05:00 +7°C° 0 mm 2 m/s 711 mmHg 57%
    06:00 +7°C° 0 mm 2 m/s 711 mmHg 56%
    07:00 +9°C° 0 mm 2 m/s 712 mmHg 54%
    08:00 +10°C° 0 mm 2 m/s 712 mmHg 51%
    09:00 +12°C° 0 mm 3 m/s 713 mmHg 49%
    10:00 +15°C° 0 mm 2 m/s 713 mmHg 44%
    11:00 +17°C° 0 mm 2 m/s 713 mmHg 40%
    12:00 +19°C° 0 mm 2 m/s 714 mmHg 35%
    13:00 +19°C° 0 mm 2 m/s 713 mmHg 35%
    14:00 +20°C° 0 mm 2 m/s 713 mmHg 35%
    15:00 +20°C° 0 mm 2 m/s 713 mmHg 35%
    16:00 +18°C° 0 mm 1 m/s 713 mmHg 43%
    17:00 +15°C° 0 mm 1 m/s 712 mmHg 51%
    18:00 +12°C° 0 mm 1 m/s 712 mmHg 60%
    19:00 +12°C° 0 mm 2 m/s 712 mmHg 59%
    20:00 +10°C° 0 mm 2 m/s 713 mmHg 58%
    21:00 +9°C° 0 mm 2 m/s 713 mmHg 57%
    22:00 +9°C° 0 mm 2 m/s 713 mmHg 55%
    23:00 +9°C° 0 mm 2 m/s 713 mmHg 54%
    Arată mai mult